Theta_e
363 363 361 361 364 363 362 360 356 357 363 359 358 360 363 367 369 368 367 368 368 368 370 371 370 369 369 372 372 369 371 367 377 365 370 370 367 362 356 356 358 364
363 364 363 361 365 367 368 362 361 361 363 368 361 364 364 366 363 365 366 366 367 365 370 368 371 372 370 370 372 370 372 370 368 363 368 367 369 363 359 361 358 371
361 362 359 358 356 359 357 359 363 361 359 357 361 367 361 362 362 368 369 367 365 361 369 369 370 371 369 371 373 371 365 371 365 361 366 368 369 367 368 358 359 360
363 361 358 356 356 357 357 359 361 362 359 359 357 355 357 356 363 363 367 367 367 367 364 365 366 365 368 369 373 373 368 371 370 369 370 370 372 367 367 366 364 365
360 360 359 358 357 360 360 358 355 357 356 358 355 360 365 370 364 360 364 365 369 365 367 366 367 365 368 369 369 369 366 365 367 371 370 371 374 370 364 369 368 364
364 364 363 360 360 359 355 355 356 356 357 354 356 356 357 362 363 360 360 360 358 359 359 359 361 361 363 367 367 366 364 360 363 368 367 368 365 365 359 365 366 368
360 360 359 358 355 355 355 356 356 358 355 355 358 356 357 355 359 362 362 361 359 360 358 361 365 363 363 367 367 368 368 369 366 367 368 366 368 366 361 366 371 371
356 356 357 359 355 352 353 354 355 355 359 358 354 358 358 353 358 356 360 361 358 360 361 360 365 368 359 361 364 365 364 359 360 369 367 367 368 366 365 362 368 370
356 357 356 357 354 353 350 350 353 354 357 356 352 352 357 357 357 355 361 364 361 363 365 362 366 362 361 362 363 364 363 359 357 361 364 363 363 365 364 365 363 367
357 358 356 358 353 351 351 349 350 352 355 353 352 351 351 357 359 358 361 364 362 365 366 364 367 361 361 360 365 364 362 363 364 367 361 361 361 361 360 362 361 363
357 362 360 360 359 353 350 350 349 350 352 352 352 350 351 353 357 362 364 364 357 360 363 363 362 364 364 359 358 359 362 360 360 362 364 364 362 363 364 365 363 360
355 355 356 357 361 358 355 349 348 347 348 351 352 352 353 351 355 355 357 364 361 360 361 363 364 363 365 363 358 357 359 359 361 362 360 361 362 362 363 363 360 363
357 356 356 356 359 357 356 353 350 347 346 347 350 351 350 348 351 355 356 359 363 361 359 361 363 362 365 365 362 361 360 359 357 359 358 358 359 358 357 358 359 358
354 357 357 357 359 364 362 357 354 351 349 350 352 351 349 348 346 351 355 355 358 358 360 363 364 362 365 366 364 361 359 359 358 357 354 355 356 358 356 354 355 354
358 356 359 360 360 363 364 362 361 362 361 357 357 351 348 348 348 346 350 352 353 356 358 358 357 357 358 361 362 363 362 358 356 355 355 355 355 353 355 354 352 351
354 352 352 356 354 352 352 355 360 358 356 356 357 354 356 356 354 352 348 350 352 355 356 354 354 355 357 349 353 360 361 357 355 356 355 355 357 356 352 352 349 348
350 350 353 355 358 358 357 360 359 359 360 359 357 360 361 364 358 352 347 346 348 350 352 351 352 353 346 337 339 347 360 361 359 360 360 359 357 359 356 352 350 350
349 350 353 353 351 349 351 356 358 356 357 354 351 354 355 354 354 357 357 353 347 346 347 350 351 348 335 332 335 336 347 360 359 357 355 356 356 355 356 354 351 348
352 350 349 349 348 349 350 354 355 353 353 355 356 356 355 358 356 352 352 356 354 355 350 347 349 341 331 329 332 333 335 349 356 357 354 351 351 355 354 355 355 352
345 350 350 351 350 350 352 354 354 353 356 358 358 359 358 357 356 358 357 356 354 356 358 357 353 344 329 326 328 330 332 338 356 356 356 353 352 352 352 353 355 354
342 346 350 350 351 351 350 350 351 352 354 356 357 359 358 357 357 357 358 357 355 354 354 355 354 340 330 322 323 325 329 335 354 356 354 352 352 354 357 355 357 355
338 342 345 347 349 349 349 349 349 349 350 355 359 360 359 359 358 357 356 354 355 354 354 356 356 336 332 321 320 322 327 344 351 355 354 352 351 351 352 355 355 355
337 340 342 346 347 347 346 348 351 352 354 357 355 356 355 356 357 356 356 355 354 354 353 355 357 345 332 323 317 319 326 344 350 354 356 355 353 353 353 354 354 354
338 338 338 342 343 344 346 348 352 353 354 357 354 354 354 355 356 357 357 357 355 353 353 354 355 351 333 325 317 317 330 345 350 353 354 356 357 358 358 358 359 360
337 335 334 334 338 342 342 346 349 350 351 353 353 352 353 355 356 355 354 355 356 356 358 355 355 351 335 326 316 315 327 348 353 353 353 353 354 356 357 358 358 360
333 340 339 337 335 338 339 341 344 345 348 347 349 350 350 350 350 352 353 354 355 355 355 356 355 357 356 332 316 313 317 348 357 355 353 353 354 355 355 357 358 359
Wind_Speed
6 6 6 6 6 5 6 6 7 6 5 5 5 5 4 5 4 3 4 5 5 5 5 6 7 6 5 2 4 3 0 2 1 1 2 2 1 3 3 3 1 3
8 8 6 6 5 5 5 6 6 6 5 4 5 5 5 5 6 6 5 6 6 5 5 5 4 4 3 3 3 4 3 3 2 1 2 2 3 4 4 5 4 2
9 8 9 9 9 9 9 7 5 5 6 7 4 3 6 6 6 5 4 5 5 6 5 5 5 4 4 3 3 3 3 2 2 4 3 3 2 2 2 5 2 5
9 9 10 11 9 9 9 7 6 5 6 7 6 6 6 7 5 6 5 6 5 4 5 4 5 5 4 4 4 3 3 2 2 3 1 2 4 2 2 4 2 1
11 10 9 9 8 7 7 7 9 7 8 6 8 6 4 3 7 6 5 5 4 4 4 5 4 4 5 4 5 4 5 5 4 4 4 4 3 3 3 2 3 2
9 7 8 8 7 7 9 9 8 8 9 9 8 7 5 5 4 6 6 7 7 7 7 7 6 5 6 5 4 5 4 5 5 5 4 4 4 4 4 3 4 3
4 8 12 9 11 9 9 8 8 8 9 7 6 6 6 7 6 5 7 7 7 7 7 6 5 5 5 5 5 4 4 3 4 6 5 4 4 3 4 2 2 2
5 5 11 10 12 11 11 9 10 8 7 7 8 6 6 9 7 8 6 6 7 7 6 5 6 5 7 5 5 5 5 5 5 4 5 4 3 4 4 4 2 3
4 6 8 14 14 12 13 13 11 10 8 8 9 9 7 6 7 9 6 5 6 5 5 5 6 7 5 4 5 6 6 6 6 6 5 4 5 4 4 3 4 3
8 9 12 14 14 12 13 13 11 11 9 9 10 10 9 7 6 8 6 6 6 5 4 4 4 6 6 6 5 6 6 6 5 3 6 6 5 5 6 5 4 4
11 8 9 12 11 10 13 13 12 11 10 10 10 10 9 9 7 5 5 7 8 7 5 5 5 4 5 7 6 5 5 6 6 5 4 4 5 5 5 4 5 4
9 12 14 14 9 9 12 12 11 11 11 10 10 9 7 8 9 7 6 6 7 7 7 6 6 5 5 6 8 7 6 6 6 6 6 5 4 4 4 4 4 4
11 10 12 13 10 10 10 10 11 12 11 11 10 9 9 9 9 9 7 6 6 7 8 7 7 7 5 6 7 6 6 7 8 6 6 6 6 6 7 6 6 6
9 8 6 9 9 6 6 8 8 7 7 8 8 10 10 9 10 10 9 8 7 8 7 6 7 8 7 6 7 7 7 6 7 6 7 7 7 7 8 8 7 8
5 3 3 2 7 6 4 5 6 5 5 5 5 8 10 9 9 9 9 10 9 8 8 8 9 10 8 8 7 8 8 8 6 7 7 6 7 8 8 7 7 7
5 4 7 7 10 11 12 12 9 7 6 8 11 6 6 6 7 7 7 10 10 9 9 10 10 9 10 14 11 8 8 9 8 6 7 7 6 6 7 8 9 10
9 8 7 7 3 3 3 5 7 7 5 3 4 10 5 4 6 6 8 8 10 11 11 11 11 10 13 15 15 15 10 8 8 6 6 7 7 6 6 7 7 7
7 7 8 9 10 11 8 7 7 6 5 6 9 12 7 9 9 5 5 7 7 9 12 12 11 12 15 17 17 17 14 10 9 8 7 7 7 8 7 7 7 8
6 7 8 8 6 1 5 4 2 4 4 1 4 5 6 5 4 5 8 9 8 7 7 9 11 15 15 17 19 19 19 15 9 8 9 8 8 8 8 7 6 7
9 6 6 5 3 2 3 4 4 4 5 4 3 3 4 4 5 5 5 7 7 8 8 8 8 10 17 18 19 20 20 17 11 11 9 9 8 8 8 9 8 7
9 8 6 5 5 5 4 4 4 4 5 5 3 4 4 5 5 6 6 6 7 7 9 11 11 14 8 15 18 21 21 18 12 11 10 9 8 6 5 6 7 9
9 8 8 6 4 4 3 2 2 4 6 5 4 5 4 4 5 6 7 7 8 10 10 9 12 14 12 11 15 16 19 12 12 11 11 10 10 9 8 6 6 6
6 8 6 6 5 4 6 6 4 3 3 3 5 6 7 7 7 8 8 9 10 9 10 10 11 12 13 11 13 16 10 7 9 9 9 10 10 9 9 8 8 8
2 4 6 6 5 5 2 2 4 2 3 3 5 6 8 8 8 8 8 8 9 10 10 11 11 12 15 13 14 15 14 10 9 9 9 9 8 8 8 8 9 15
2 2 5 6 6 7 6 4 2 3 4 4 4 5 7 7 7 8 9 9 10 11 12 13 12 12 12 11 12 14 13 8 9 9 9 10 9 9 9 9 9 11
4 2 2 2 4 5 5 6 5 4 5 4 5 5 7 7 8 8 10 9 9 10 11 12 12 10 10 10 11 13 16 11 8 8 9 10 9 9 8 8 9 10
Wind_Direction
189 187 192 193 190 196 179 185 193 200 190 182 187 197 183 173 179 194 170 171 185 174 168 165 168 191 175 188 132 136 77 305 33 310 266 196 235 281 273 275 127 249
189 189 190 193 194 201 187 189 193 191 183 221 192 172 191 170 177 200 177 173 177 191 165 172 175 178 172 165 183 150 182 217 205 230 280 227 202 215 240 241 229 56
195 194 193 197 198 198 202 194 201 192 179 204 216 187 179 181 189 176 181 174 181 193 172 168 181 175 175 172 158 153 190 189 208 237 232 264 249 204 263 267 205 185
201 199 199 202 200 195 204 194 203 198 195 185 198 211 206 180 184 177 175 184 184 200 168 190 188 179 179 175 155 186 177 203 193 239 194 297 277 229 252 280 270 186
202 205 206 203 206 191 198 202 205 195 212 189 191 207 195 178 172 181 183 180 182 187 178 180 195 192 170 184 173 177 192 199 213 224 188 215 217 258 241 242 308 303
201 211 210 208 204 192 197 208 209 198 209 201 194 195 196 188 190 183 187 187 193 198 192 192 187 204 190 184 189 200 199 213 199 205 211 216 231 221 240 192 205 220
286 234 211 214 208 202 198 202 201 209 200 217 189 199 196 184 198 205 183 187 194 195 203 187 185 187 200 179 185 197 211 228 211 198 205 203 216 250 255 250 231 220
171 307 272 216 212 206 205 200 199 204 199 204 202 198 204 193 188 206 210 185 201 192 201 196 175 182 196 195 182 192 207 216 229 183 214 222 210 202 232 255 216 188
204 192 244 251 215 210 206 207 200 202 205 199 208 201 203 211 187 201 201 200 208 200 189 206 176 182 197 202 190 189 199 224 217 195 205 213 219 228 234 222 243 241
209 217 223 239 226 214 207 207 203 201 202 209 209 209 194 205 209 195 192 189 208 214 195 209 199 181 188 208 209 192 196 210 244 220 193 203 218 219 216 226 233 221
216 219 241 225 233 236 214 209 210 202 196 206 212 217 206 187 202 207 192 184 196 211 211 202 220 204 184 202 212 214 205 208 216 234 238 213 213 217 226 221 216 223
240 214 218 227 203 222 237 216 212 212 197 196 211 218 223 197 182 199 211 191 191 199 208 208 213 216 201 208 216 214 210 218 215 212 223 235 239 232 230 234 244 231
229 239 231 224 202 208 224 228 218 214 212 199 198 212 216 223 191 187 198 206 194 200 205 206 208 213 212 206 221 231 215 206 220 211 214 221 224 231 233 228 228 233
244 255 272 260 237 208 222 230 242 249 228 210 183 197 213 215 226 191 184 198 204 202 211 211 205 209 212 212 212 228 239 219 210 218 218 217 222 216 226 231 220 221
277 239 253 347 313 324 302 258 237 267 302 283 203 194 204 213 222 224 189 192 201 202 207 216 217 213 214 211 213 215 230 244 222 219 226 225 217 223 217 224 238 236
279 334 1 354 14 1 355 342 349 12 22 1 315 247 199 198 215 224 225 192 192 195 201 213 220 223 208 207 205 213 217 229 233 225 225 227 226 223 228 216 222 235
22 6 2 8 12 82 49 343 343 341 348 358 338 329 290 220 197 220 237 231 200 198 204 212 219 224 205 193 200 207 212 220 232 235 219 224 229 229 230 238 236 226
26 3 7 10 26 10 353 349 346 351 358 29 354 329 344 351 337 303 250 242 238 214 206 211 219 219 206 191 194 200 206 217 222 229 235 223 222 231 231 230 239 250
27 30 29 40 73 338 280 270 304 278 273 264 180 243 316 324 305 315 326 318 286 260 243 220 214 214 204 193 193 196 202 208 221 223 224 230 224 219 225 229 226 229
2 26 37 44 19 11 322 312 323 315 325 330 318 301 283 275 276 276 269 272 288 299 285 267 256 228 198 191 195 197 201 202 215 218 226 231 227 223 219 219 224 228
4 3 27 33 27 10 17 356 1 317 297 279 278 280 275 276 282 285 293 307 297 279 283 277 258 268 223 196 197 198 200 200 211 214 222 228 236 239 233 230 219 219
359 358 0 23 31 19 14 351 305 301 308 305 284 277 267 264 269 268 264 260 261 266 267 266 263 256 251 197 206 211 205 201 209 213 217 223 227 233 240 245 246 243
348 331 339 0 16 26 13 346 326 310 301 306 286 266 262 262 259 248 248 250 253 249 248 256 262 256 249 218 203 203 200 221 221 222 221 225 229 226 235 241 247 249
308 317 329 1 348 349 54 287 294 307 304 313 297 288 278 273 264 261 258 254 257 259 259 259 261 259 251 236 206 195 189 199 210 217 230 233 233 235 234 239 241 244
315 332 333 341 343 329 334 345 347 320 309 299 295 298 296 286 278 274 274 270 262 257 246 248 259 267 265 244 208 196 193 206 202 207 224 227 230 236 234 238 242 243
336 290 267 288 292 308 327 322 314 303 295 314 309 297 286 279 280 281 277 271 267 263 265 256 255 260 256 240 205 201 200 203 197 208 221 225 230 234 239 231 235 238